Location: Newark
(44.9861°N, 0.2536°E)
Time: 19:21:53
(UTC+00:00)

HuskySat-1 - Pass Details

Date: 11 July 2020
Orbit: 457 x 471 km, 51.6° (Epoch: 11 August)

Event Time Altitude Azimuth Distance (km) Brightness Sun altitude
Exits shadow 02:54:35 - 284° (WNW) 2,424 ? -12.6°
Reaches altitude 10° 02:56:47 10° 296° (WNW) 1,611 ? -12.3°
Maximum altitude 02:59:57 28° 356° (N) 904 ? -12.0°
Drops below altitude 10° 03:03:07 10° 57° (ENE) 1,605 ? -11.6°
Sets 03:05:28 0° 70° (ENE) 2,478 ? -11.3°
